Scottsbluff, NE

12:20 AM MDT on September 18, 2019 (GMT -0600)
Heilig

Weather History for KBFF - July, 2019

Change the Weather History Date:

Sunday, July 14, 2019

  Actual Average Record
Temperature  
Mean Temperature 80 °F -  
Max Temperature 97 °F 90 °F 105 °F (1931)
Min Temperature 63 °F 58 °F 44 °F (1943)
Cooling Degree Days 15    
Growing Degree Days 30 (Base 50)    
Moisture  
Dew Point 32 °F    
Average Humidity 12    
Maximum Humidity 20    
Minimum Humidity 6    
Precipitation  
Precipitation 0.24 in - - ()
Sea Level Pressure  
Sea Level Pressure 29.93 in    
Wind  
Wind Speed 8 mph (WSW)    
Max Wind Speed 22 mph    
Max Gust Speed 25 mph    
Visibility 10 miles    
Events Rain , Thunderstorm    
Averages and records for this station are not official NWS values.
T = Trace of Precipitation, MM = Missing Value Source: NWS Daily Summary

Daily Weather History Graph

Daily Weather History Graph

Search for Another Location

Airport or City:

Astronomy

Jul. 14, 2019 Rise Set
Actual Time 5:31 AM MDT 8:28 PM MDT
Civil Twilight 4:58 AM MDT 9:01 PM MDT
Nautical Twilight 4:15 AM MDT 9:43 PM MDT
Astronomical Twilight 3:26 AM MDT 10:33 PM MDT
Moon 6:53 PM MDT (7/14) 3:34 AM MDT (7/14)
Length of Visible Light 16h 03m
Length of Day
14h 56m
Waxing Gibbous, 95% of the Moon is Illuminated
Jul 14
Waxing Gibbous
Jul 16
Full
Jul 24
Last Quarter
Jul 31
New
Aug 7
First Quarter

Hourly Weather History & Observations

Time (MDT) Temp. Dew Point Humidity Pressure Visibility Wind Dir Wind Speed Gust Speed Precip Events Conditions
12:53 AM 77.0 °F - N/A% 29.88 in 10.0 mi South 6.9 mph - N/A   Clear
1:53 AM 78.1 °F - N/A% 29.86 in 10.0 mi South 8.1 mph - N/A   Clear
2:53 AM 75.0 °F - N/A% 29.87 in 10.0 mi ESE 9.2 mph - N/A   Clear
3:53 AM 71.1 °F - N/A% 29.87 in 10.0 mi East 4.6 mph - N/A   Clear
4:53 AM 66.0 °F - N/A% 29.89 in 10.0 mi NNW 4.6 mph - N/A   Clear
5:53 AM 63.0 °F - N/A% 29.92 in 10.0 mi NE 5.8 mph - N/A   Clear
6:53 AM 69.1 °F - N/A% 29.93 in 10.0 mi ESE 5.8 mph - N/A   Clear
7:53 AM 73.9 °F - N/A% 29.94 in 10.0 mi Calm Calm - N/A   Clear
8:53 AM 79.0 °F - N/A% 29.93 in 10.0 mi NNW 4.6 mph - N/A   Clear
9:53 AM 82.0 °F - N/A% 29.92 in 10.0 mi WNW 6.9 mph - N/A   Clear
10:53 AM 87.1 °F - N/A% 29.91 in 10.0 mi West 10.4 mph - N/A   Clear
11:53 AM 90.0 °F - N/A% 29.90 in 10.0 mi WNW 9.2 mph - N/A   Clear
12:53 PM 91.0 °F - N/A% 29.89 in 10.0 mi WSW 6.9 mph - N/A   Clear
1:53 PM 93.0 °F - N/A% 29.87 in 10.0 mi WNW 5.8 mph 16.1 mph N/A   Clear
2:53 PM 95.0 °F - N/A% 29.86 in 10.0 mi NW 5.8 mph - N/A   Clear
3:53 PM 96.1 °F - N/A% 29.85 in 10.0 mi WNW 9.2 mph - N/A   Clear
4:53 PM 95.0 °F - N/A% 29.86 in 10.0 mi Calm Calm - N/A   Clear
5:53 PM 87.1 °F - N/A% 29.88 in 10.0 mi SSW 17.3 mph 25.3 mph N/A   Clear
6:53 PM 87.1 °F - N/A% 29.84 in 10.0 mi SSW 12.7 mph - N/A   Clear
7:53 PM 82.9 °F - N/A% 29.86 in 10.0 mi SSW 5.8 mph - N/A   Clear
8:53 PM 77.0 °F - N/A% 29.85 in 10.0 mi Calm Calm - N/A   Clear
9:53 PM 79.0 °F - N/A% 29.94 in 10.0 mi NNW 12.7 mph - N/A   Mostly Cloudy
10:01 PM 82.0 °F - N/A% 30.11 in 10.0 mi North 11.5 mph 19.6 mph N/A Thunderstorm Thunderstorm
10:17 PM 69.1 °F - N/A% 30.12 in 3.0 mi NNE 21.9 mph - 0.21 in Rain , Thunderstorm Heavy Rain
10:25 PM 70.0 °F - N/A% 30.12 in 7.0 mi NE 17.3 mph - 0.23 in Rain , Thunderstorm Light Rain
10:42 PM 70.0 °F - N/A% 30.10 in 10.0 mi ESE 18.4 mph - 0.23 in Thunderstorm Scattered Clouds
10:51 PM 71.6 °F - N/A% 30.10 in 10.0 mi SE 17.3 mph - 0.23 in   Mostly Cloudy
10:53 PM 71.1 °F - N/A% 29.95 in 10.0 mi SE 16.1 mph - 0.23 in   Mostly Cloudy
11:53 PM 70.0 °F - N/A% 29.92 in 10.0 mi SE 13.8 mph 23.0 mph 0.00 in   Clear